Time[GMT],salinity[psu](1m),sigma_t[kg/m^3](1m),conductivity[msiemens/cm](1m),temperature[C](1m)
2008-10-01 15:00,30.142,22.072,38.173,15.74
2008-10-01 15:30,30.147,22.083,38.153,15.71
2008-10-01 16:00,30.148,22.086,38.145,15.70
2008-10-01 16:30,30.157,22.095,38.147,15.69
2008-10-01 17:00,30.180,22.111,38.182,15.70
2008-10-01 17:30,30.203,22.121,38.234,15.73
2008-10-01 18:00,30.250,22.164,38.261,15.70
2008-10-01 18:30,30.267,22.183,38.254,15.67
2008-10-01 19:00,30.290,22.202,38.281,15.67
2008-10-01 19:30,30.312,22.222,38.288,15.65
2008-10-01 20:00,30.315,22.220,38.309,15.67
2008-10-01 20:30,30.322,22.228,38.308,15.66
2008-10-01 21:00,30.330,22.239,38.300,15.64
2008-10-01 21:30,30.339,22.252,38.284,15.61
2008-10-01 22:00,30.339,22.256,38.266,15.59
2008-10-01 22:30,30.336,22.254,38.263,15.59
2008-10-01 23:00,30.328,22.252,38.236,15.57
2008-10-01 23:30,30.304,22.236,38.201,15.56
2008-10-02 00:00,30.292,22.231,38.170,15.54
2008-10-02 00:30,30.285,22.234,38.127,15.50
2008-10-02 01:00,30.286,22.237,38.119,15.49
2008-10-02 01:30,30.313,22.256,38.159,15.50
2008-10-02 02:00,30.315,22.255,38.170,15.51
2008-10-02 02:30,30.303,22.256,38.112,15.46
2008-10-02 03:00,30.314,22.263,38.134,15.47
2008-10-02 03:30,30.331,22.272,38.170,15.49
2008-10-02 04:00,30.349,22.285,38.190,15.49
2008-10-02 04:30,30.379,22.313,38.207,15.47
2008-10-02 05:00,30.387,22.321,38.207,15.46
2008-10-02 05:30,30.399,22.335,38.204,15.44
2008-10-02 06:00,30.385,22.318,38.214,15.47
2008-10-02 06:30,30.338,22.284,38.152,15.46
2008-10-02 07:00,30.285,22.239,38.110,15.48
2008-10-02 07:30,30.278,22.224,38.136,15.52
2008-10-02 08:00,30.257,22.199,38.147,15.56
2008-10-02 08:30,30.231,22.175,38.135,15.58
2008-10-02 09:00,30.212,22.158,38.122,15.59
2008-10-02 09:30,30.190,22.144,38.089,15.58
2008-10-02 10:00,30.182,22.135,38.088,15.59
2008-10-02 10:30,30.197,22.151,38.088,15.57
2008-10-02 11:00,30.246,22.198,38.109,15.53
2008-10-02 11:30,30.281,22.240,38.088,15.46
2008-10-02 12:00,30.300,22.269,38.048,15.39
2008-10-02 12:30,30.274,22.238,38.062,15.44
2008-10-02 13:00,30.274,22.238,38.062,15.44
2008-10-02 13:30,30.307,22.273,38.065,15.40
2008-10-02 14:00,30.313,22.268,38.106,15.44
2008-10-02 14:30,30.382,22.324,38.176,15.43
2008-10-02 15:00,30.464,22.397,38.224,15.38
2008-10-02 15:30,30.522,22.451,38.255,15.34
2008-10-02 16:00,30.587,22.511,38.284,15.29
2008-10-02 16:30,30.585,22.508,38.291,15.30
2008-10-02 17:00,30.624,22.549,38.291,15.25
2008-10-02 17:30,30.660,22.589,38.279,15.19
2008-10-02 18:00,30.686,22.616,38.282,15.16
2008-10-02 18:30,30.688,22.617,38.284,15.16
2008-10-02 19:00,30.724,22.649,38.307,15.14
2008-10-02 19:30,30.733,22.656,38.317,15.14
2008-10-02 20:00,30.812,22.743,38.300,15.02
2008-10-02 20:30,30.862,22.794,38.303,14.96
2008-10-02 21:00,30.934,22.872,38.286,14.85
2008-10-02 21:30,30.903,22.855,38.225,14.82
2008-10-02 22:00,30.919,22.878,38.199,14.77
2008-10-02 22:30,30.924,22.888,38.178,14.74
2008-10-02 23:00,30.936,22.907,38.147,14.69
2008-10-02 23:30,30.964,22.937,38.143,14.65
2008-10-03 00:00,31.042,23.014,38.158,14.57
2008-10-03 00:30,31.099,23.075,38.151,14.49
2008-10-03 01:00,31.156,23.127,38.178,14.45
2008-10-03 01:30,31.263,23.215,38.269,14.42
2008-10-03 02:00,31.157,23.035,38.569,14.89
2008-10-03 02:30,31.122,23.004,38.548,14.91
2008-10-03 03:00,30.901,22.872,38.143,14.73
2008-10-03 03:30,30.863,22.828,38.163,14.80
2008-10-03 04:00,30.829,22.804,38.116,14.79
2008-10-03 04:30,30.798,22.770,38.126,14.84
2008-10-03 05:00,30.817,22.765,38.226,14.93
2008-10-03 05:30,30.779,22.754,38.104,14.84
2008-10-03 06:00,30.774,22.747,38.117,14.86
2008-10-03 06:30,30.781,22.750,38.133,14.87
2008-10-03 07:00,30.788,22.762,38.115,14.84
2008-10-03 07:30,30.794,22.775,38.086,14.80
2008-10-03 08:00,30.803,22.788,38.070,14.77
2008-10-03 08:30,30.818,22.808,38.051,14.73
2008-10-03 09:00,30.845,22.844,38.020,14.66
2008-10-03 09:30,30.885,22.893,37.985,14.57
2008-10-03 10:00,30.957,22.957,38.029,14.53
2008-10-03 10:30,31.011,23.002,38.071,14.51
2008-10-03 11:00,31.104,23.070,38.192,14.53
2008-10-03 11:30,31.180,23.108,38.364,14.63
2008-10-03 12:00,31.204,23.147,38.302,14.53
2008-10-03 12:30,31.156,23.159,38.036,14.29
2008-10-03 13:00,31.151,23.158,38.022,14.28
2008-10-03 13:30,31.154,23.165,38.008,14.26
2008-10-03 14:00,31.153,23.161,38.015,14.27
2008-10-03 14:30,31.159,23.164,38.031,14.28
2008-10-03 15:00,31.156,23.158,38.045,14.30
2008-10-03 15:30,31.110,23.126,37.977,14.28
2008-10-03 16:00,31.101,23.124,37.950,14.26
2008-10-03 16:30,31.108,23.133,37.940,14.24
2008-10-03 17:00,31.145,23.166,37.963,14.22
2008-10-03 17:30,31.067,23.107,37.868,14.21
2008-10-03 18:00,31.063,23.113,37.829,14.17
2008-10-03 18:30,31.089,23.141,37.822,14.13
2008-10-03 19:00,31.098,23.150,37.823,14.12
2008-10-03 19:30,31.129,23.180,37.830,14.09
2008-10-03 20:00,31.165,23.214,37.843,14.06
2008-10-03 20:30,31.202,23.250,37.848,14.02
2008-10-03 21:00,31.188,23.250,37.789,13.97
2008-10-03 21:30,31.188,23.262,37.736,13.91
2008-10-03 22:00,31.203,23.296,37.655,13.80
2008-10-03 22:30,31.240,23.334,37.651,13.75
2008-10-03 23:00,31.269,23.369,37.630,13.69
2008-10-03 23:30,31.267,23.385,37.548,13.60
2008-10-04 00:00,31.274,23.403,37.503,13.54
2008-10-04 00:30,31.278,23.414,37.472,13.50
2008-10-04 01:00,31.273,23.428,37.387,13.41
2008-10-04 01:30,31.296,23.420,37.526,13.54
2008-10-04 02:00,31.302,23.368,37.780,13.82
2008-10-04 02:30,31.302,23.356,37.833,13.88
2008-10-04 03:00,31.299,23.350,37.848,13.90
2008-10-04 03:30,31.309,23.358,37.859,13.90
2008-10-04 04:00,31.312,23.364,37.844,13.88
2008-10-04 04:30,31.307,23.362,37.830,13.87
2008-10-04 05:00,31.313,23.373,37.810,13.84
2008-10-04 05:30,31.312,23.376,37.791,13.82
2008-10-04 06:00,31.307,23.370,37.794,13.83
2008-10-04 06:30,31.310,23.371,37.807,13.84
2008-10-04 07:00,31.311,23.370,37.817,13.85
2008-10-04 07:30,31.323,23.383,37.812,13.83
2008-10-04 08:00,31.309,23.372,37.797,13.83
2008-10-04 08:30,31.322,23.402,37.722,13.73
2008-10-04 09:00,31.265,23.364,37.634,13.70
2008-10-04 09:30,31.260,23.344,37.699,13.78
2008-10-04 10:00,31.260,23.328,37.770,13.86
2008-10-04 10:30,31.274,23.342,37.767,13.84
2008-10-04 11:00,31.265,23.382,37.555,13.61
2008-10-04 11:30,31.257,23.411,37.387,13.43
2008-10-04 12:00,31.232,23.453,37.088,13.12
2008-10-04 12:30,31.245,23.451,37.154,13.18
2008-10-04 13:00,31.233,23.459,37.062,13.09
2008-10-04 13:30,31.222,23.451,37.051,13.09
2008-10-04 14:00,31.232,23.439,37.149,13.19
2008-10-04 14:30,31.275,23.435,37.363,13.38
2008-10-04 15:00,31.283,23.438,37.389,13.40
2008-10-04 15:30,31.323,23.372,37.856,13.88
2008-10-04 16:00,31.313,23.364,37.845,13.88
2008-10-04 16:30,31.285,23.357,37.753,13.81
2008-10-04 17:00,31.282,23.353,37.759,13.82
2008-10-04 17:30,31.282,23.351,37.767,13.83
2008-10-04 18:00,31.284,23.350,37.778,13.84
2008-10-04 18:30,31.284,23.348,37.787,13.85
2008-10-04 19:00,31.282,23.347,37.785,13.85
2008-10-04 19:30,31.284,23.348,37.787,13.85
2008-10-04 20:00,31.303,23.359,37.825,13.87
2008-10-04 20:30,31.312,23.358,37.871,13.91
2008-10-04 21:00,31.316,23.361,37.875,13.91
2008-10-04 21:30,31.316,23.353,37.911,13.95
2008-10-04 22:00,31.326,23.358,37.930,13.96
2008-10-04 22:30,31.286,23.356,37.763,13.82
2008-10-04 23:00,31.272,23.415,37.439,13.47
2008-10-04 23:30,31.262,23.437,37.296,13.32
2008-10-05 00:00,31.275,23.447,37.310,13.32
2008-10-05 00:30,31.271,23.434,37.350,13.37
2008-10-05 01:00,31.285,23.423,37.461,13.48
2008-10-05 01:30,31.266,23.428,37.353,13.38
2008-10-05 02:00,31.292,23.391,37.637,13.67
2008-10-05 02:30,31.293,23.392,37.638,13.67
2008-10-05 03:00,31.276,23.406,37.496,13.53
2008-10-05 03:30,31.271,23.408,37.464,13.50
2008-10-05 04:00,31.304,23.422,37.553,13.56
2008-10-05 04:30,31.320,23.416,37.649,13.65
2008-10-05 05:00,31.331,23.409,37.732,13.73
2008-10-05 05:30,31.331,23.409,37.732,13.73
2008-10-05 06:00,31.333,23.414,37.716,13.71
2008-10-05 06:30,31.333,23.414,37.716,13.71
2008-10-05 07:00,31.331,23.414,37.705,13.70
2008-10-05 07:30,31.336,23.423,37.693,13.68
2008-10-05 08:00,31.327,23.430,37.622,13.61
2008-10-05 08:30,31.313,23.467,37.395,13.37
2008-10-05 09:00,31.320,23.521,37.182,13.12
2008-10-05 09:30,31.339,23.574,37.026,12.92
2008-10-05 10:00,31.329,23.550,37.095,13.01
2008-10-05 10:30,31.329,23.530,37.183,13.11
2008-10-05 11:00,31.320,23.511,37.226,13.17
2008-10-05 11:30,31.311,23.502,37.225,13.18
2008-10-05 12:00,31.310,23.502,37.224,13.18
2008-10-05 12:30,31.313,23.490,37.289,13.25
2008-10-05 13:00,31.314,23.487,37.307,13.27
2008-10-05 13:30,31.322,23.493,37.316,13.27
2008-10-05 14:00,31.323,23.447,37.529,13.51
2008-10-05 14:30,31.334,23.429,37.656,13.64
2008-10-05 15:00,31.300,23.413,37.575,13.59
2008-10-05 15:30,31.306,23.412,37.608,13.62
2008-10-05 16:00,31.298,23.409,37.581,13.60
2008-10-05 16:30,31.216,23.318,37.616,13.74
2008-10-05 17:00,31.126,23.227,37.616,13.85
2008-10-05 17:30,31.133,23.250,37.544,13.76
2008-10-05 18:00,31.195,23.318,37.523,13.66
2008-10-05 18:30,31.190,23.318,37.500,13.64
2008-10-05 19:00,31.217,23.339,37.529,13.64
2008-10-05 19:30,31.225,23.353,37.503,13.60
2008-10-05 20:00,31.295,23.387,37.667,13.70
2008-10-05 20:30,31.315,23.399,37.706,13.72
2008-10-05 21:00,31.324,23.397,37.751,13.76
2008-10-05 21:30,31.369,23.557,37.243,13.13
2008-10-05 22:00,31.383,23.625,36.993,12.83
2008-10-05 22:30,31.323,23.549,37.071,12.99
2008-10-05 23:00,31.336,23.566,37.049,12.95
2008-10-05 23:30,31.341,23.576,37.028,12.92
2008-10-06 00:00,31.329,23.553,37.077,12.99
2008-10-06 00:30,31.346,23.582,37.025,12.91
2008-10-06 01:00,31.352,23.596,36.987,12.86
2008-10-06 01:30,31.369,23.622,36.943,12.79
2008-10-06 02:00,31.259,23.497,37.011,13.00
2008-10-06 02:30,31.109,23.309,37.175,13.37
2008-10-06 03:00,31.136,23.337,37.169,13.33
2008-10-06 03:30,31.237,23.468,37.040,13.06
2008-10-06 04:00,31.380,23.599,37.105,12.96
2008-10-06 04:30,31.357,23.536,37.283,13.19
2008-10-06 05:00,31.345,23.485,37.455,13.40
2008-10-06 05:30,31.329,23.457,37.509,13.48
2008-10-06 06:00,31.317,23.444,37.514,13.50
2008-10-06 06:30,31.315,23.454,37.458,13.44
2008-10-06 07:00,31.307,23.446,37.459,13.45
2008-10-06 07:30,31.308,23.449,37.451,13.44
2008-10-06 08:00,31.301,23.438,37.470,13.47
2008-10-06 08:30,31.303,23.441,37.463,13.46
2008-10-06 09:00,31.308,23.449,37.451,13.44
2008-10-06 09:30,31.311,23.455,37.436,13.42
2008-10-06 10:00,31.297,23.445,37.422,13.42
2008-10-06 10:30,31.297,23.448,37.404,13.40
2008-10-06 11:00,31.304,23.461,37.376,13.36
2008-10-06 11:30,31.310,23.472,37.356,13.33
2008-10-06 12:00,31.298,23.461,37.352,13.34
2008-10-06 12:30,31.304,23.465,37.358,13.34
2008-10-06 13:00,31.298,23.461,37.352,13.34
2008-10-06 13:30,31.299,23.468,37.327,13.31
2008-10-06 14:00,31.243,23.405,37.355,13.41
2008-10-06 14:30,31.173,23.321,37.411,13.56
2008-10-06 15:00,31.163,23.287,37.515,13.69
2008-10-06 15:30,31.157,23.242,37.684,13.89
2008-10-06 16:00,31.157,23.226,37.755,13.97
2008-10-06 16:30,31.162,23.228,37.769,13.98
2008-10-06 17:00,31.148,23.207,37.798,14.03
2008-10-06 17:30,31.137,23.194,37.804,14.05
2008-10-06 18:00,31.123,23.179,37.806,14.07
2008-10-06 18:30,31.119,23.175,37.811,14.08
2008-10-06 19:00,31.115,23.171,37.806,14.08
2008-10-06 19:30,31.110,23.169,37.792,14.07
2008-10-06 20:00,31.093,23.161,37.756,14.05
2008-10-06 20:30,31.076,23.149,37.728,14.04
2008-10-06 21:00,31.050,23.136,37.674,14.01
2008-10-06 21:30,31.049,23.139,37.655,13.99
2008-10-06 22:00,31.057,23.155,37.620,13.94
2008-10-06 22:30,31.107,23.228,37.525,13.77
2008-10-06 23:00,31.167,23.326,37.361,13.51
2008-10-06 23:30,31.239,23.433,37.210,13.25
2008-10-07 00:00,31.254,23.460,37.155,13.17
2008-10-07 00:30,31.263,23.477,37.121,13.12
2008-10-07 01:00,31.283,23.508,37.072,13.04
2008-10-07 01:30,31.297,23.527,37.052,13.00
2008-10-07 02:00,31.260,23.473,37.127,13.13
2008-10-07 02:30,31.239,23.433,37.210,13.25
2008-10-07 03:00,31.188,23.352,37.339,13.46
2008-10-07 03:30,31.163,23.293,37.488,13.66
2008-10-07 04:00,31.189,23.311,37.525,13.67
2008-10-07 04:30,31.228,23.341,37.567,13.67
2008-10-07 05:00,31.280,23.392,37.580,13.62
2008-10-07 05:30,31.293,23.388,37.656,13.69
2008-10-07 06:00,31.265,23.366,37.625,13.69
2008-10-07 06:30,31.307,23.404,37.644,13.66
2008-10-07 07:00,31.334,23.423,37.682,13.67
2008-10-07 07:30,31.367,23.453,37.700,13.65
2008-10-07 08:00,31.377,23.469,37.676,13.61
2008-10-07 08:30,31.409,23.493,37.710,13.61
2008-10-07 09:00,31.406,23.495,37.689,13.59
2008-10-07 09:30,31.401,23.495,37.666,13.57
2008-10-07 10:00,31.392,23.494,37.630,13.54
2008-10-07 10:30,31.386,23.494,37.606,13.52
2008-10-07 11:00,31.392,23.500,37.603,13.51
2008-10-07 11:30,31.397,23.516,37.556,13.45
2008-10-07 12:00,31.388,23.511,37.537,13.44
2008-10-07 12:30,31.386,23.515,37.508,13.41
2008-10-07 13:00,31.369,23.502,37.490,13.41
2008-10-07 13:30,31.364,23.494,37.502,13.43
2008-10-07 14:00,31.354,23.487,37.492,13.43
2008-10-07 14:30,31.335,23.473,37.462,13.42
2008-10-07 15:00,31.335,23.470,37.480,13.44
2008-10-07 15:30,31.348,23.472,37.529,13.48
2008-10-07 16:00,31.357,23.469,37.583,13.53
2008-10-07 16:30,31.369,23.468,37.640,13.58
2008-10-07 17:00,31.373,23.458,37.707,13.65
2008-10-07 17:30,31.419,23.469,37.863,13.77
2008-10-07 18:00,31.419,23.453,37.934,13.85
2008-10-07 18:30,31.439,23.449,38.035,13.94
2008-10-07 19:00,31.489,23.442,38.295,14.17
2008-10-07 19:30,31.465,23.433,38.224,14.12
2008-10-07 20:00,31.449,23.416,38.224,14.14
2008-10-07 20:30,31.444,23.417,38.201,14.12
2008-10-07 21:00,31.444,23.423,38.174,14.09
2008-10-07 21:30,31.449,23.435,38.144,14.05
2008-10-07 22:00,31.450,23.442,38.119,14.02
2008-10-07 22:30,31.457,23.449,38.117,14.01
2008-10-07 23:00,31.456,23.450,38.107,14.00
2008-10-07 23:30,31.448,23.447,38.090,13.99
2008-10-08 00:00,31.447,23.448,38.080,13.98
2008-10-08 00:30,31.449,23.455,38.055,13.95
2008-10-08 01:00,31.447,23.456,38.044,13.94
2008-10-08 01:30,31.449,23.464,38.020,13.91
2008-10-08 02:00,31.459,23.473,38.021,13.90
2008-10-08 02:30,31.460,23.478,38.005,13.88
2008-10-08 03:00,31.460,23.482,37.987,13.86
2008-10-08 03:30,31.456,23.479,37.983,13.86
2008-10-08 04:00,31.449,23.482,37.940,13.82
2008-10-08 04:30,31.437,23.479,37.900,13.79
2008-10-08 05:00,31.425,23.473,37.869,13.77
2008-10-08 05:30,31.425,23.477,37.851,13.75
2008-10-08 06:00,31.402,23.457,37.835,13.76
2008-10-08 06:30,31.392,23.447,37.833,13.77
2008-10-08 07:00,31.379,23.434,37.837,13.79
2008-10-08 07:30,31.388,23.450,37.802,13.74
2008-10-08 08:00,31.380,23.443,37.803,13.75
2008-10-08 08:30,31.387,23.454,37.784,13.72
2008-10-08 09:00,31.382,23.453,37.770,13.71
2008-10-08 09:30,31.389,23.461,37.759,13.69
2008-10-08 10:00,31.397,23.472,37.750,13.67
2008-10-08 10:30,31.413,23.488,37.750,13.65
2008-10-08 11:00,31.431,23.502,37.769,13.65
2008-10-08 11:30,31.430,23.497,37.786,13.67
2008-10-08 12:00,31.436,23.504,37.783,13.66
2008-10-08 12:30,31.437,23.505,37.785,13.66
2008-10-08 13:00,31.436,23.502,37.792,13.67
2008-10-08 13:30,31.424,23.492,37.779,13.67
2008-10-08 14:00,31.421,23.480,37.820,13.72
2008-10-08 14:30,31.409,23.467,37.825,13.74
2008-10-08 15:00,31.393,23.430,37.914,13.86
2008-10-08 15:30,31.399,23.415,38.010,13.96
2008-10-08 16:00,31.414,23.430,38.008,13.94
2008-10-08 16:30,31.392,23.389,38.091,14.06
2008-10-08 17:00,31.359,23.371,38.019,14.02
2008-10-08 17:30,31.354,23.376,37.978,13.98
2008-10-08 18:00,31.359,23.362,38.064,14.07
2008-10-08 18:30,31.407,23.404,38.089,14.04
2008-10-08 19:00,31.432,23.408,38.188,14.12
2008-10-08 19:30,31.416,23.415,38.081,14.02
2008-10-08 20:00,31.313,23.377,37.792,13.82
2008-10-08 20:30,31.262,23.369,37.595,13.66
2008-10-08 21:00,31.260,23.390,37.496,13.55
2008-10-08 21:30,31.221,23.354,37.481,13.58
2008-10-08 22:00,31.193,23.334,37.442,13.57
2008-10-08 22:30,31.190,23.356,37.333,13.45
2008-10-08 23:00,31.190,23.391,37.175,13.27
2008-10-08 23:30,31.212,23.420,37.146,13.21
2008-10-09 00:00,31.221,23.436,37.111,13.16
2008-10-09 00:30,31.240,23.452,37.132,13.16
2008-10-09 01:00,31.276,23.461,37.249,13.25
2008-10-09 01:30,31.326,23.479,37.400,13.36
2008-10-09 02:00,31.345,23.485,37.455,13.40
2008-10-09 02:30,31.359,23.490,37.497,13.43
2008-10-09 03:00,31.364,23.488,37.529,13.46
2008-10-09 03:30,31.367,23.487,37.550,13.48
2008-10-09 04:00,31.370,23.482,37.579,13.51
2008-10-09 04:30,31.374,23.484,37.593,13.52
2008-10-09 05:00,31.375,23.483,37.603,13.53
2008-10-09 05:30,31.387,23.492,37.615,13.53
2008-10-09 06:00,31.385,23.490,37.613,13.53
2008-10-09 06:30,31.378,23.487,37.597,13.52
2008-10-09 07:00,31.368,23.486,37.560,13.49
2008-10-09 07:30,31.352,23.475,37.534,13.48
2008-10-09 08:00,31.348,23.478,37.503,13.45
2008-10-09 08:30,31.332,23.471,37.459,13.42
2008-10-09 09:00,31.329,23.473,37.438,13.40
2008-10-09 09:30,31.310,23.490,37.277,13.24
2008-10-09 10:00,31.274,23.478,37.168,13.16
2008-10-09 10:30,31.255,23.469,37.121,13.13
2008-10-09 11:00,31.247,23.466,37.095,13.11
2008-10-09 11:30,31.249,23.470,37.088,13.10
2008-10-09 12:00,31.249,23.468,37.097,13.11
2008-10-09 12:30,31.251,23.461,37.134,13.15
2008-10-09 13:00,31.260,23.453,37.214,13.23
2008-10-09 13:30,31.265,23.453,37.237,13.25
2008-10-09 14:00,31.285,23.457,37.312,13.31
2008-10-09 14:30,31.304,23.450,37.429,13.42
2008-10-09 15:00,31.334,23.449,37.567,13.54
2008-10-09 15:30,31.350,23.433,37.708,13.68
2008-10-09 16:00,31.356,23.416,37.812,13.79
2008-10-09 16:30,31.353,23.408,37.836,13.82
2008-10-09 17:00,31.343,23.398,37.834,13.83
2008-10-09 17:30,31.325,23.388,37.796,13.81
2008-10-09 18:00,31.310,23.364,37.833,13.87
2008-10-09 18:30,31.316,23.365,37.857,13.89
2008-10-09 19:00,31.300,23.355,37.831,13.88
2008-10-09 19:30,31.292,23.355,37.796,13.85
2008-10-09 20:00,31.295,23.355,37.808,13.86
2008-10-09 20:30,31.303,23.351,37.861,13.91
2008-10-09 21:00,31.307,23.358,37.848,13.89
2008-10-09 21:30,31.303,23.359,37.826,13.87
2008-10-09 22:00,31.296,23.356,37.809,13.86
2008-10-09 22:30,31.296,23.357,37.800,13.85
2008-10-09 23:00,31.295,23.361,37.781,13.83
2008-10-09 23:30,31.297,23.365,37.775,13.82
2008-10-10 00:00,31.302,23.372,37.762,13.80
2008-10-10 00:30,31.303,23.373,37.764,13.80
2008-10-10 01:00,31.315,23.380,37.785,13.81
2008-10-10 01:30,31.319,23.391,37.754,13.77
2008-10-10 02:00,31.321,23.393,37.757,13.77
2008-10-10 02:30,31.327,23.399,37.754,13.76
2008-10-10 03:00,31.348,23.409,37.803,13.79
2008-10-10 03:30,31.344,23.403,37.817,13.81
2008-10-10 04:00,31.355,23.409,37.838,13.82
2008-10-10 04:30,31.352,23.411,37.817,13.80
2008-10-10 05:00,31.356,23.414,37.821,13.80
2008-10-10 05:30,31.362,23.421,37.819,13.79
2008-10-10 06:00,31.357,23.418,37.804,13.78
2008-10-10 06:30,31.341,23.415,37.752,13.74
2008-10-10 07:00,31.337,23.416,37.730,13.72
2008-10-10 07:30,31.334,23.415,37.717,13.71
2008-10-10 08:00,31.338,23.418,37.722,13.71
2008-10-10 08:30,31.344,23.424,37.719,13.70
2008-10-10 09:00,31.345,23.426,37.721,13.70
2008-10-10 09:30,31.344,23.424,37.719,13.70
2008-10-10 10:00,31.347,23.437,37.678,13.65
2008-10-10 10:30,31.348,23.444,37.653,13.62
2008-10-10 11:00,31.346,23.451,37.616,13.58
2008-10-10 11:30,31.348,23.450,37.627,13.59
2008-10-10 12:00,31.351,23.454,37.621,13.58
2008-10-10 12:30,31.355,23.455,37.634,13.59
2008-10-10 13:00,31.354,23.443,37.686,13.65
2008-10-10 13:30,31.363,23.445,37.713,13.67
2008-10-10 14:00,31.361,23.436,37.747,13.71
2008-10-10 14:30,31.366,23.415,37.858,13.83
2008-10-10 15:00,31.377,23.414,37.915,13.88
2008-10-10 15:30,31.381,23.399,37.999,13.97
2008-10-10 16:00,31.381,23.388,38.043,14.02
2008-10-10 16:30,31.375,23.374,38.081,14.07
2008-10-10 17:00,31.365,23.348,38.150,14.16
2008-10-10 17:30,31.368,23.338,38.207,14.22
2008-10-10 18:00,31.353,23.316,38.235,14.27
2008-10-10 18:30,31.362,23.318,38.262,14.29
2008-10-10 19:00,31.378,23.329,38.289,14.30
2008-10-10 19:30,31.384,23.340,38.269,14.27
2008-10-10 20:00,31.375,23.339,38.232,14.24
2008-10-10 20:30,31.365,23.340,38.186,14.20
2008-10-10 21:00,31.355,23.338,38.148,14.17
2008-10-10 21:30,31.352,23.340,38.127,14.15
2008-10-10 22:00,31.353,23.359,38.048,14.06
2008-10-10 22:30,31.345,23.359,38.013,14.03
2008-10-10 23:00,31.339,23.368,37.944,13.96
2008-10-10 23:30,31.326,23.371,37.877,13.90
2008-10-11 00:00,31.321,23.377,37.827,13.85
2008-10-11 00:30,31.317,23.382,37.788,13.81
2008-10-11 01:00,31.324,23.392,37.778,13.79
2008-10-11 01:30,31.358,23.395,37.912,13.90
2008-10-11 02:00,31.358,23.383,37.965,13.96
2008-10-11 02:30,31.356,23.375,37.989,13.99
2008-10-11 03:00,31.365,23.387,37.982,13.97
2008-10-11 03:30,31.375,23.396,37.983,13.96
2008-10-11 04:00,31.383,23.402,37.992,13.96
2008-10-11 04:30,31.377,23.390,38.021,14.00
2008-10-11 05:00,31.380,23.398,37.998,13.97
2008-10-11 05:30,31.373,23.396,37.972,13.95
2008-10-11 06:00,31.370,23.401,37.943,13.92
2008-10-11 06:30,31.357,23.393,37.920,13.91
2008-10-11 07:00,31.368,23.407,37.905,13.88
2008-10-11 07:30,31.373,23.413,37.901,13.87
2008-10-11 08:00,31.374,23.409,37.920,13.89
2008-10-11 08:30,31.374,23.412,37.912,13.88
2008-10-11 09:00,31.385,23.439,37.844,13.79
2008-10-11 09:30,31.380,23.441,37.812,13.76
2008-10-11 10:00,31.311,23.441,37.498,13.49
2008-10-11 10:30,31.318,23.435,37.559,13.55
2008-10-11 11:00,31.317,23.436,37.549,13.54
2008-10-11 11:30,31.292,23.427,37.478,13.49
2008-10-11 12:00,31.277,23.417,37.453,13.48
2008-10-11 12:30,31.272,23.409,37.465,13.50
2008-10-11 13:00,31.277,23.409,37.488,13.52
2008-10-11 13:30,31.272,23.399,37.509,13.55
2008-10-11 14:00,31.261,23.377,37.559,13.62
2008-10-11 14:30,31.282,23.381,37.635,13.68
2008-10-11 15:00,31.289,23.374,37.695,13.74
2008-10-11 15:30,31.272,23.333,37.801,13.88
2008-10-11 16:00,31.238,23.276,37.896,14.03
2008-10-11 16:30,31.333,23.346,38.018,14.05
2008-10-11 17:00,31.305,23.277,38.191,14.28
2008-10-11 17:30,31.355,23.242,38.557,14.63
2008-10-11 18:00,31.432,23.346,38.455,14.42
2008-10-11 18:30,31.374,23.291,38.436,14.47
2008-10-11 19:00,31.376,23.248,38.625,14.68
2008-10-11 19:30,31.375,23.205,38.802,14.88
2008-10-11 20:00,31.372,23.212,38.764,14.84
2008-10-11 20:30,31.340,23.247,38.469,14.55
2008-10-11 21:00,31.320,23.257,38.341,14.43
2008-10-11 21:30,31.321,23.277,38.262,14.34
2008-10-11 22:00,31.324,23.308,38.141,14.20
2008-10-11 22:30,31.309,23.319,38.027,14.09
2008-10-11 23:00,31.302,23.318,38.002,14.07
2008-10-11 23:30,31.314,23.339,37.961,14.01
2008-10-12 00:00,31.309,23.341,37.929,13.98
2008-10-12 00:30,31.224,23.265,37.881,14.03
2008-10-12 01:00,31.193,23.248,37.821,14.00
2008-10-12 01:30,31.194,23.271,37.725,13.89
2008-10-12 02:00,31.148,23.221,37.736,13.96
2008-10-12 02:30,31.142,23.212,37.747,13.98
2008-10-12 03:00,31.176,23.253,37.723,13.91
2008-10-12 03:30,31.164,23.258,37.648,13.84
2008-10-12 04:00,31.171,23.259,37.673,13.86
2008-10-12 04:30,31.170,23.263,37.655,13.84
2008-10-12 05:00,31.126,23.194,37.757,14.01
2008-10-12 05:30,31.127,23.168,37.872,14.14
2008-10-12 06:00,31.135,23.195,37.793,14.04
2008-10-12 06:30,31.146,23.212,37.770,14.00
2008-10-12 07:00,31.161,23.241,37.706,13.91
2008-10-12 07:30,31.168,23.257,37.670,13.86
2008-10-12 08:00,31.163,23.263,37.620,13.81
2008-10-12 08:30,31.167,23.266,37.625,13.81
2008-10-12 09:00,31.205,23.309,37.604,13.74
2008-10-12 09:30,31.233,23.335,37.617,13.72
2008-10-12 10:00,31.247,23.342,37.650,13.74
2008-10-12 10:30,31.262,23.357,37.648,13.72
2008-10-12 11:00,31.271,23.364,37.658,13.72
2008-10-12 11:30,31.278,23.372,37.657,13.71
2008-10-12 12:00,31.275,23.372,37.645,13.70
2008-10-12 12:30,31.280,23.375,37.650,13.70
2008-10-12 13:00,31.285,23.379,37.656,13.70
2008-10-12 13:30,31.294,23.384,37.674,13.71
2008-10-12 14:00,31.292,23.372,37.716,13.76
2008-10-12 14:30,31.274,23.342,37.767,13.84
2008-10-12 15:00,31.217,23.278,37.794,13.94
2008-10-12 15:30,31.162,23.195,37.910,14.14
2008-10-12 16:00,31.143,23.139,38.066,14.34